Yap International Airport
PTYA : now visible

Airfield :











YOU CAN JOIN US ON...

 
LOGIN :

Register | Disclaimer

   EN    FR    IT 

 









Legend :    VFR   Marginal VFR   IFR   Intensive IFR   Very Intensive IFR
Visi :
Ceiling :
>= 8 km
>= 3000ft
5 to 8 km
1000 to 3000 ft
1500m to 5 km
500 to 1000 ft
800 to 1500m
200 to 500 ft
< 800m
< 200 ft
Symbols :   Thunderstorms  Fog  Heavy snow  Heavy precipitations  Wind > 20 kt






- Airport Elevation : 91 ft
- IATA code : YAP


PTYA - Yap International

CURRENT METAR :
  • 281251Z VRB03KT 12SM FEW016TCU SCT130 OVC300 27/25 A2995 RMK TCU N SLP142 T02710254

EXPIRED METARs :
  • 281155Z VRB04KT 12SM FEW016 BKN130 OVC300 28/26 A2995 RMK SLP142 70065 8/171 T02760264 10302 20276 52008
  • 281050Z VRB03KT 12SM FEW016 BKN130 OVC300 28/26 A2994 RMK SLP140 T02780263

TAF PTYA
Valid from the 28 at 12:00 until the 29 at 12:00 UTC


281120Z 2812/2912 09007KT P6SM VCSH SCT016 BKN130
KZOA FIR / Oceania



MET'MAP, your aeronautical weather chart ! - Copyright ORBIFLY December 2007 - Disclaimer

ORBIFLY MET'MAP TEAM :

Programming & Development : Alexandra Zaïnal
Concept & original design : Baudouin d'Aumeries
Assistance for programming : Marc-Olivier Méhu
Technical & hardware support : Manuel Goepfert

Contact : metmap@orbifly.com




SOURCES & CREDITS :

   NOAA       Earth
Advisory